EW3808 Weather Reports


Display with metric or nautical units.
time (UTC)temp
F
wind
direction
speed
MPH
gust
MPH
rain 1hr
in
rain 24hr
in
rain mn
in
humidity
%
barometer
mb
20260902052643 52 179 3.0 12.0 0.00 0.03 0.03 77 1022.2
20260902051612 52 174 3.0 10.0 0.00 0.03 0.03 77 1022.1
20260902050619 53 190 4.0 10.0 0.00 0.03 0.03 77 1022.2
20260902044540 53 170 4.0 11.0 0.00 0.03 0.03 78 1022.6
20260902042431 53 157 4.0 10.0 0.00 0.03 0.03 77 1022.6
20260902041426 53 169 3.0 10.0 0.00 0.03 0.03 76 1022.6
20260902040355 54 171 4.0 14.0 0.00 0.03 0.03 75 1022.6
20260902035415 54 152 4.0 14.0 0.00 0.03 0.03 74 1022.6
20260902034358 54 153 5.0 11.0 0.00 0.03 0.03 74 1022.6
20260902032204 54 195 4.0 10.0 0.00 0.03 0.03 75 1022.5
20260902025055 55 157 4.0 11.0 0.00 0.03 0.03 74 1022.3
20260902024050 55 168 3.0 11.0 0.00 0.03 0.03 74 1022.2
20260902023026 55 166 2.0 8.0 0.00 0.03 0.03 73 1022.2
20260902020912 56 163 4.0 10.0 0.00 0.03 0.03 72 1022.3
20260902014725 57 150 5.0 10.0 0.00 0.03 0.03 70 1022.3
20260902013747 58 171 2.0 8.0 0.00 0.03 0.03 69 1022.3
20260902012806 58 159 0.0 10.0 0.00 0.03 0.03 67 1022.1
20260902010649 59 132 2.0 14.0 0.00 0.03 0.03 63 1022.3
20260902004452 60 147 4.0 12.0 0.00 0.03 0.03 61 1022.6
20260902003452 61 133 4.0 12.0 0.00 0.03 0.03 60 1022.6
20260902002439 61 188 4.0 12.0 0.00 0.03 0.03 59 1022.5
20260902001424 61 193 3.0 10.0 0.00 0.03 0.03 56 1022.8
20260902000402 62 138 4.0 13.0 0.00 0.03 0.03 50 1022.7
20260901234242 63 125 5.0 14.0 0.00 0.03 0.03 49 1022.7
20260901233224 62 200 4.0 13.0 0.00 0.03 0.03 55 1022.8
20260901232244 62 134 5.0 18.0 0.00 0.03 0.03 58 1022.8
20260901231228 61 79 5.0 18.0 0.00 0.03 0.03 61 1023.0
20260901230158 61 144 1.0 11.0 0.00 0.06 0.03 62 1023.3
20260901225134 61 126 2.0 13.0 0.00 0.15 0.03 62 1023.2
20260901224152 61 149 3.0 13.0 0.00 0.18 0.03 61 1023.3
20260901223125 61 96 3.0 11.0 0.00 0.19 0.03 64 1023.4
20260901222100 61 118 3.0 11.0 0.00 0.21 0.03 63 1023.6
20260901221102 60 155 1.0 6.0 0.04 0.21 0.03 74 1023.6
20260901220059 61 258 1.0 6.0 0.16 0.21 0.03 65 1023.9
20260901215058 63 181 2.0 8.0 0.00 0.19 0.01 53 1023.8
20260901214041 64 138 5.0 15.0 0.00 0.19 0.01 51 1023.9
20260901211846 64 194 2.0 16.0 0.00 0.19 0.01 49 1024.3
20260901210858 65 176 2.0 10.0 0.00 0.19 0.01 47 1024.4
20260901205853 66 157 2.0 7.0 0.00 0.19 0.01 49 1024.4
20260901204820 65 50 2.0 15.0 0.00 0.19 0.01 50 1024.6
20260901203802 64 266 0.0 9.0 0.00 0.19 0.01 49 1024.7
20260901202738 63 205 1.0 0.0 0.00 0.19 0.01 53 1024.9
20260901200619 64 179 1.0 11.0 0.00 0.19 0.01 53 1024.9
20260901195611 65 171 2.0 12.0 0.00 0.19 0.01 52 1024.8
20260901194557 65 227 3.0 12.0 0.00 0.19 0.01 51 1024.9
20260901193542 64 267 1.0 9.0 0.00 0.19 0.01 53 1025.2
20260901191455 63 174 1.0 12.0 0.00 0.19 0.01 56 1025.4
20260901190501 63 355 0.0 9.0 0.00 0.19 0.01 58 1025.4
20260901185445 61 217 1.0 12.0 0.00 0.19 0.01 60 1025.6
20260901183346 60 288 0.0 4.0 0.00 0.19 0.01 62 1025.6
20260901182402 60 273 0.0 10.0 0.00 0.19 0.01 63 1025.7
20260901181407 60 324 0.0 0.0 0.00 0.19 0.01 63 1025.9
20260901180356 60 102 0.0 7.0 0.00 0.19 0.01 67 1025.9
20260901174204 61 188 1.0 11.0 0.00 0.19 0.01 65 1025.9
20260901173149 60 171 1.0 12.0 0.00 0.19 0.01 67 1025.9
20260901172149 61 167 3.0 13.0 0.00 0.19 0.01 67 1025.9
20260901171128 60 92 5.0 13.0 0.00 0.19 0.01 67 1025.7
20260901170112 59 111 1.0 10.0 0.00 0.19 0.01 70 1025.8
20260901165126 59 150 2.0 9.0 0.00 0.19 0.01 69 1025.8
20260901164145 59 172 0.0 5.0 0.00 0.19 0.01 69 1025.8
20260901163154 58 204 1.0 8.0 0.00 0.19 0.01 70 1025.8
20260901162214 58 149 1.0 7.0 0.00 0.19 0.01 70 1025.7
20260901161238 58 114 2.0 10.0 0.00 0.19 0.01 69 1025.6
20260901160221 58 139 0.0 9.0 0.00 0.19 0.01 70 1025.7
20260901155148 57 186 1.0 7.0 0.00 0.19 0.01 70 1025.8
20260901154134 57 126 3.0 9.0 0.00 0.19 0.01 69 1025.8
20260901153143 58 133 6.0 15.0 0.00 0.19 0.01 65 1025.7
20260901152148 58 104 9.0 15.0 0.00 0.19 0.01 66 1025.8
20260901150010 56 94 3.0 12.0 0.00 0.19 0.01 70 1025.7
20260901142728 54 148 5.0 17.0 0.00 0.19 0.01 71 1025.5
20260901141750 54 169 5.0 17.0 0.00 0.19 0.01 72 1025.4
20260901140732 52 128 4.0 13.0 0.00 0.19 0.01 75 1025.5
20260901135730 50 138 5.0 14.0 0.00 0.19 0.01 76 1025.4
20260901134709 49 147 6.0 14.0 0.00 0.19 0.01 77 1025.3
20260901133637 49 153 5.0 12.0 0.00 0.19 0.01 78 1025.1
20260901132627 49 143 4.0 11.0 0.00 0.19 0.01 78 1024.9
20260901131602 49 202 4.0 10.0 0.00 0.19 0.01 79 1024.8
20260901130549 49 167 3.0 10.0 0.00 0.19 0.01 79 1024.8
20260901125524 49 171 3.0 9.0 0.00 0.19 0.01 79 1024.9
20260901124451 48 157 1.0 0.0 0.00 0.19 0.01 80 1024.8
20260901123509 48 163 0.0 5.0 0.00 0.19 0.01 79 1024.7
20260901120256 48 161 5.0 10.0 0.00 0.19 0.01 79 1024.5
20260901115247 48 156 3.0 10.0 0.00 0.19 0.01 80 1024.4
20260901114300 48 175 4.0 10.0 0.00 0.19 0.01 81 1024.3
20260901113250 48 153 3.0 9.0 0.00 0.19 0.01 81 1024.2
20260901111202 48 173 4.0 13.0 0.00 0.19 0.01 81 1024.1
20260901104955 48 159 4.0 12.0 0.00 0.19 0.01 80 1024.1
20260901103959 48 137 3.0 10.0 0.00 0.19 0.01 79 1024.2
20260901103014 49 161 2.0 9.0 0.00 0.19 0.01 79 1024.2
20260901102012 49 167 4.0 15.0 0.00 0.19 0.01 77 1024.3
20260901101006 49 155 6.0 15.0 0.00 0.19 0.01 77 1024.4
20260901100026 49 114 6.0 14.0 0.00 0.19 0.01 77 1024.2
20260901095017 49 127 8.0 14.0 0.00 0.19 0.01 78 1024.2
20260901094020 49 131 7.0 15.0 0.00 0.19 0.01 79 1024.1
20260901093009 49 117 5.0 15.0 0.00 0.19 0.01 79 1024.1
20260901092006 49 109 7.0 14.0 0.00 0.19 0.01 79 1024.1
20260901090942 49 118 6.0 13.0 0.00 0.19 0.01 80 1024.0
20260901085932 48 126 6.0 12.0 0.00 0.19 0.01 81 1024.1
20260901084904 48 132 4.0 12.0 0.00 0.19 0.01 82 1023.9
20260901083914 48 155 3.0 11.0 0.00 0.19 0.01 82 1023.9
20260901082927 48 175 3.0 11.0 0.00 0.19 0.01 83 1024.1
20260901081936 48 146 2.0 10.0 0.00 0.19 0.01 83 1024.0
20260901080938 48 162 0.0 7.0 0.00 0.19 0.01 83 1023.9
20260901075907 48 150 1.0 5.0 0.00 0.19 0.01 83 1024.0
20260901074922 48 167 2.0 0.0 0.00 0.19 0.01 82 1024.0
20260901073941 48 144 1.0 7.0 0.00 0.19 0.01 82 1024.1
20260901072926 49 161 3.0 10.0 0.00 0.19 0.01 82 1024.2
20260901071937 49 165 2.0 10.0 0.00 0.19 0.01 82 1024.2
20260901070958 49 159 2.0 7.0 0.00 0.19 0.01 82 1024.0
20260901064857 50 155 2.0 10.0 0.00 0.19 0.01 81 1023.9
20260901063822 50 164 1.0 11.0 0.00 0.18 0.00 81 1023.9
20260901062803 50 175 0.0 9.0 0.00 0.18 0.00 82 1024.1
20260901061814 50 178 2.0 10.0 0.00 0.18 0.00 82 1024.0
20260901060742 49 185 3.0 13.0 0.00 0.18 0.00 82 1024.2
20260901055725 49 167 2.0 11.0 0.00 0.18 0.18 83 1024.1
20260901054713 49 166 3.0 10.0 0.00 0.18 0.18 83 1024.0
20260901053735 49 155 4.0 11.0 0.00 0.18 0.18 84 1023.9